STARLINK-1324 (45574 NORAD) Tracking and Keplerian Element Data

This shows tracking and keplerian element data for the satellite.

Feedback or suggestion? Click here.




ElementValue
Catalog45574
NameSTARLINK-1324
Epoch Orbit177
Epoch Day143.66667824
Epoch Year2020
RAAN251.8672
Inclination52.9985
Eccentricity0.0001023
Argument of Perigee65.1753
Mean Anonmoly138.2092
Mean Motion15.62731202
Decay Rate0.00032271
L11 45574U 20025AV 20143.66667824 .00032271 00000-0 35716-3 0 9999
L22 45574 52.9985 251.8672 0001023 65.1753 138.2092 15.62731202 1778

Live tracking and technical data element details for STARLINK-1324 (NORAD 45574). STARLINK-1324 can be tracked NOW for your location showing map with azimuth and elevation plus other details from your city location.

Track the satellite on the map from your city or location and see movement details for azimuth, elevation, latitude, longitude, range, height, and movement on the map or in text.







IsCatalogInMostPopularTable: catalog: 45574, numindb: 9
Update: records affected: 1



GetName: 45574 STARLINK-1324

Hit Count: updated at: Mon, 25 May 2020 07:40:58 GMT